GW1062 Weather Reports


Display with metric or nautical units.
time (UTC)temp
F
wind
direction
speed
MPH
gust
MPH
rain 1hr
in
rain 24hr
in
rain mn
in
humidity
%
barometer
mb
20260508131600 52 1 4.0 5.0 0.00 0.00 0.00 49 971.0
20260508130048 50 1 3.0 6.0 0.00 0.00 0.00 50 970.9
20260508124545 49 1 3.0 5.0 0.00 0.00 0.00 51 970.8
20260508123044 48 4 1.0 3.0 0.00 0.00 0.00 53 970.9
20260508121544 46 360 0.0 2.0 0.00 0.00 0.00 54 970.8
20260508120045 44 1 0.0 2.0 0.00 0.00 0.00 57 970.8
20260508114541 43 1 0.0 3.0 0.00 0.00 0.00 54 970.8
20260508113040 44 2 1.0 3.0 0.00 0.00 0.00 53 970.8
20260508111540 44 2 2.0 5.0 0.00 0.00 0.00 51 970.9
20260508110038 44 1 0.0 2.0 0.00 0.00 0.00 53 970.8
20260508104540 44 1 0.0 2.0 0.00 0.00 0.00 52 970.7
20260508103039 43 1 0.0 1.0 0.00 0.00 0.00 52 970.7
20260508101543 43 1 0.0 1.0 0.00 0.00 0.00 52 970.9
20260508100037 44 1 0.0 1.0 0.00 0.00 0.00 52 970.8
20260508094535 44 1 0.0 0.0 0.00 0.00 0.00 51 970.9
20260508093037 44 1 0.0 2.0 0.00 0.00 0.00 50 970.8
20260508091534 43 10 0.0 0.0 0.00 0.00 0.00 51 970.8
20260508090037 44 10 0.0 2.0 0.00 0.00 0.00 49 970.9
20260508084532 45 10 0.0 2.0 0.00 0.00 0.00 49 970.8
20260508083033 45 10 0.0 1.0 0.00 0.00 0.00 49 970.9
20260508081531 45 10 0.0 0.0 0.00 0.00 0.00 49 970.9
20260508080050 45 10 0.0 0.0 0.00 0.00 0.00 49 971.1
20260508074527 45 10 0.0 0.0 0.00 0.00 0.00 49 971.2
20260508073028 44 10 0.0 0.0 0.00 0.00 0.00 50 971.2
20260508071527 44 10 0.0 0.0 0.00 0.00 0.00 51 971.3
20260508070026 44 10 0.0 3.0 0.00 0.00 0.00 51 971.3
20260508064537 45 10 0.0 3.0 0.00 0.00 0.00 51 971.5
20260508063018 46 10 2.0 5.0 0.00 0.00 0.00 50 971.5
20260508061519 47 360 2.0 3.0 0.00 0.00 0.00 49 971.6
20260508060013 48 360 2.0 4.0 0.00 0.00 0.00 47 971.7
20260508054521 48 360 1.0 2.0 0.00 0.00 0.00 46 971.7
20260508053011 48 360 0.0 1.0 0.00 0.00 0.00 45 971.9
20260508051507 48 10 0.0 2.0 0.00 0.00 0.00 47 972.1
20260508050123 47 360 0.0 2.0 0.00 0.00 0.00 48 972.2
20260508044504 50 360 0.0 0.0 0.00 0.00 0.00 45 972.1
20260508043004 51 360 0.0 2.0 0.00 0.00 0.00 43 972.1
20260508041504 52 360 0.0 0.0 0.00 0.00 0.00 42 972.0
20260508040010 54 9 0.0 3.0 0.00 0.00 0.00 38 972.0
20260508034502 54 360 1.0 2.0 0.00 0.00 0.00 39 972.0
20260508033004 54 360 0.0 0.0 0.00 0.00 0.00 40 972.1
20260508031601 55 360 0.0 2.0 0.00 0.00 0.00 38 971.9
20260508024559 56 360 1.0 4.0 0.00 0.00 0.00 37 971.6
20260508023059 56 360 0.0 3.0 0.00 0.00 0.00 37 971.4
20260508021559 57 360 0.0 3.0 0.00 0.00 0.00 36 971.3
20260508020100 57 360 0.0 2.0 0.00 0.00 0.00 36 971.0
20260508014558 57 360 0.0 2.0 0.00 0.00 0.00 35 970.7
20260508013057 59 360 0.0 3.0 0.00 0.00 0.00 34 970.6
20260508011557 60 360 0.0 3.0 0.00 0.00 0.00 33 970.3
20260508010057 62 360 1.0 4.0 0.00 0.00 0.00 32 970.3
20260508004558 63 6 1.0 3.0 0.00 0.00 0.00 31 970.1
20260508003055 64 6 0.0 3.0 0.00 0.00 0.00 33 970.0
20260508001555 65 6 0.0 5.0 0.00 0.00 0.00 32 969.9
20260508000058 65 5 2.0 8.0 0.00 0.00 0.00 30 969.9
20260507234557 65 5 5.0 11.0 0.00 0.00 0.00 28 969.8
20260507233111 65 5 4.0 13.0 0.00 0.00 0.00 31 969.9
20260507231550 66 6 3.0 10.0 0.00 0.00 0.00 32 970.0
20260507230051 66 5 0.0 4.0 0.00 0.00 0.00 32 969.9
20260507224548 65 7 1.0 7.0 0.00 0.00 0.00 32 970.1
20260507223057 65 5 2.0 13.0 0.00 0.00 0.00 34 970.2
20260507221545 65 6 6.0 11.0 0.00 0.00 0.00 32 970.2
20260507220042 65 6 2.0 9.0 0.00 0.00 0.00 37 970.3
20260507214544 64 6 3.0 6.0 0.00 0.00 0.00 37 970.5
20260507213042 64 6 2.0 5.0 0.00 0.00 0.00 35 970.8
20260507211547 63 6 3.0 6.0 0.00 0.00 0.00 37 970.8
20260507210054 64 5 3.0 13.0 0.00 0.00 0.00 38 970.8
20260507204543 64 4 5.0 14.0 0.00 0.00 0.00 36 971.1
20260507203037 65 5 6.0 13.0 0.00 0.00 0.00 34 971.1
20260507201530 63 5 1.0 16.0 0.00 0.00 0.00 42 971.3
20260507200031 62 1 2.0 14.0 0.00 0.00 0.00 41 971.5
20260507194540 64 5 6.0 15.0 0.00 0.00 0.00 38 971.6
20260507193028 63 4 4.0 10.0 0.00 0.00 0.00 38 971.7
20260507191525 62 4 8.0 13.0 0.00 0.00 0.00 37 971.7
20260507190037 61 4 1.0 8.0 0.00 0.00 0.00 40 971.7
20260507184532 62 6 7.0 14.0 0.00 0.00 0.00 38 971.6
20260507183021 62 5 5.0 15.0 0.00 0.00 0.00 39 971.7
20260507181519 61 6 3.0 13.0 0.00 0.00 0.00 40 971.8
20260507180020 61 4 9.0 16.0 0.00 0.00 0.00 40 971.9
20260507174518 60 4 5.0 14.0 0.00 0.00 0.00 42 972.1
20260507173034 61 5 4.0 15.0 0.00 0.00 0.00 41 972.2
20260507171513 59 4 4.0 11.0 0.00 0.00 0.00 43 972.4
20260507170019 60 5 6.0 17.0 0.00 0.00 0.00 41 972.4
20260507164520 60 4 9.0 14.0 0.00 0.00 0.00 41 972.5
20260507163009 60 4 9.0 16.0 0.00 0.00 0.00 42 972.5
20260507161508 59 6 8.0 18.0 0.00 0.00 0.00 44 972.6
20260507160006 58 5 10.0 19.0 0.00 0.00 0.00 45 972.6
20260507154505 57 5 8.0 17.0 0.00 0.00 0.00 44 972.7
20260507153002 57 4 7.0 16.0 0.00 0.00 0.00 45 972.6
20260507151600 56 5 9.0 16.0 0.00 0.00 0.00 45 972.4
20260507150058 56 4 8.0 18.0 0.00 0.00 0.00 45 972.4
20260507144555 55 4 12.0 19.0 0.00 0.00 0.00 48 972.5
20260507143152 54 4 12.0 18.0 0.00 0.00 0.00 48 972.6
20260507141549 51 360 13.0 19.0 0.00 0.00 0.00 53 972.6
20260507140045 50 360 16.0 21.0 0.00 0.00 0.00 55 973.0
20260507134545 50 360 11.0 15.0 0.00 0.00 0.00 54 972.9
20260507133048 50 360 5.0 12.0 0.00 0.00 0.00 52 972.8